GW2926 Weather Reports


time (UTC)temp
C
wind
direction
speed
KPH
gust
KPH
rain 1hr
cm
rain 24hr
cm
rain mn
cm
humidity
%
barometer
mb
20260510120039 15 0 0.0 0.0 0.00 0.00 0.00 95 1014.3
20260510114539 15 0 0.0 0.0 0.00 0.00 0.00 95 1014.4
20260510113035 15 0 0.0 1.6 0.00 0.00 0.00 94 1014.4
20260510111551 15 0 0.0 0.0 0.00 0.00 0.00 95 1014.6
20260510110038 15 0 0.0 0.0 0.00 0.00 0.00 95 1014.7
20260510104546 15 0 0.0 0.0 0.00 0.00 0.00 95 1014.7
20260510103038 14 0 0.0 1.6 0.00 0.00 0.00 95 1015.0
20260510101537 14 0 0.0 1.6 0.00 0.00 0.00 95 1014.8
20260510100036 14 0 0.0 0.0 0.00 0.00 0.00 95 1014.5
20260510094541 14 0 0.0 0.0 0.00 0.00 0.00 94 1014.6
20260510093037 14 0 0.0 1.6 0.00 0.00 0.00 93 1014.2
20260510091537 15 169 0.0 3.2 0.00 0.00 0.00 94 1014.1
20260510090040 14 169 0.0 1.6 0.00 0.00 0.00 94 1013.9
20260510084535 14 0 0.0 1.6 0.00 0.00 0.00 95 1013.8
20260510083039 13 0 0.0 0.0 0.00 0.00 0.00 95 1013.5
20260510081542 13 0 0.0 1.6 0.00 0.00 0.00 95 1013.4
20260510080039 14 0 0.0 0.0 0.00 0.00 0.00 94 1013.3
20260510074537 13 0 0.0 1.6 0.00 0.00 0.00 94 1013.2
20260510073037 14 0 0.0 0.0 0.00 0.00 0.00 94 1013.3
20260510071536 14 169 0.0 3.2 0.00 0.00 0.00 94 1013.4
20260510070040 14 0 0.0 0.0 0.00 0.00 0.00 93 1013.2
20260510064539 14 0 0.0 0.0 0.00 0.00 0.00 93 1013.1
20260510063039 14 0 0.0 0.0 0.00 0.00 0.00 93 1013.2
20260510061538 15 0 0.0 3.2 0.00 0.00 0.00 93 1013.6
20260510060047 15 0 0.0 1.6 0.00 0.00 0.00 92 1013.4
20260510054537 15 0 0.0 0.0 0.00 0.00 0.00 91 1013.3
20260510053041 15 0 0.0 0.0 0.00 0.00 0.00 91 1013.2
20260510051545 15 0 0.0 0.0 0.00 0.00 0.00 90 1013.1
20260510050037 15 0 0.0 1.6 0.00 0.00 0.00 90 1012.9
20260510044538 15 0 0.0 0.0 0.00 0.00 0.00 90 1012.9
20260510043049 15 0 0.0 1.6 0.00 0.00 0.00 90 1012.9
20260510041537 15 0 0.0 0.0 0.00 0.00 0.00 88 1012.7
20260510040039 16 0 0.0 1.6 0.00 0.00 0.00 88 1012.8
20260510034543 16 0 0.0 3.2 0.00 0.00 0.00 87 1012.8
20260510033040 16 0 0.0 3.2 0.00 0.00 0.00 87 1012.7
20260510031605 17 0 0.0 6.4 0.00 0.00 0.00 85 1012.4
20260510030038 17 0 0.0 1.6 0.00 0.00 0.00 84 1012.3
20260510024538 17 0 0.0 0.0 0.00 0.00 0.00 82 1012.3
20260510023047 18 0 0.0 1.6 0.00 0.00 0.00 81 1012.1
20260510021542 18 0 0.0 1.6 0.00 0.00 0.00 78 1011.9
20260510020037 20 0 0.0 0.0 0.00 0.00 0.00 74 1011.8
20260510014538 20 0 0.0 0.0 0.00 0.00 0.00 68 1011.7
20260510013038 21 0 0.0 0.0 0.00 0.00 0.00 63 1011.6
20260510011553 22 0 0.0 1.6 0.00 0.00 0.00 58 1011.4
20260510010044 23 0 0.0 0.0 0.00 0.00 0.00 54 1011.2
20260510004538 25 0 0.0 1.6 0.00 0.00 0.00 51 1011.1
20260510003038 26 0 0.0 1.6 0.00 0.00 0.00 46 1010.9
20260510001537 27 0 0.0 3.2 0.00 0.00 0.00 43 1010.9
20260510000256 28 0 0.0 3.2 0.00 0.00 0.00 42 1010.8
20260509234540 28 0 1.6 9.7 0.00 0.00 0.00 41 1010.7
20260509233037 28 144 3.2 8.0 0.00 0.00 0.00 37 1010.6
20260509231539 28 192 3.2 8.0 0.00 0.00 0.00 35 1010.5
20260509230037 28 162 3.2 12.9 0.00 0.00 0.00 39 1010.4
20260509224537 28 114 4.8 12.9 0.00 0.00 0.00 39 1010.3
20260509223037 28 240 4.8 16.1 0.00 0.00 0.00 42 1010.1
20260509221539 29 159 3.2 11.3 0.00 0.00 0.00 47 1010.0
20260509220044 29 139 3.2 11.3 0.00 0.00 0.00 44 1010.0
20260509214541 29 98 1.6 12.9 0.00 0.00 0.00 43 1010.0
20260509213049 30 162 3.2 12.9 0.00 0.00 0.00 43 1010.0
20260509211605 29 82 4.8 11.3 0.00 0.00 0.00 42 1010.1
20260509210037 29 68 3.2 14.5 0.00 0.00 0.00 43 1010.2
20260509204544 29 152 4.8 12.9 0.00 0.00 0.00 39 1010.4
20260509203042 29 72 3.2 19.3 0.00 0.00 0.00 43 1010.6
20260509201537 29 151 4.8 16.1 0.00 0.00 0.00 39 1010.9
20260509200039 29 85 4.8 14.5 0.00 0.00 0.00 45 1010.9
20260509194539 29 0 3.2 19.3 0.00 0.00 0.00 49 1010.9
20260509193036 28 109 4.8 14.5 0.00 0.00 0.00 46 1011.0
20260509191537 28 92 3.2 11.3 0.00 0.00 0.00 50 1011.0
20260509190045 28 134 3.2 11.3 0.00 0.00 0.00 49 1011.1
20260509184546 28 15 1.6 11.3 0.00 0.00 0.00 53 1011.1
20260509183041 28 103 3.2 6.4 0.00 0.00 0.00 50 1011.1
20260509181545 27 173 3.2 14.5 0.00 0.00 0.00 55 1011.3
20260509180041 27 150 1.6 8.0 0.00 0.00 0.00 52 1011.4
20260509174540 27 0 0.0 8.0 0.00 0.00 0.00 53 1011.4
20260509173037 27 59 1.6 9.7 0.00 0.00 0.00 58 1011.5
20260509171538 26 107 1.6 11.3 0.00 0.00 0.00 59 1011.7
20260509170037 26 103 3.2 11.3 0.00 0.00 0.00 60 1011.8
20260509164536 26 155 4.8 12.9 0.00 0.00 0.00 63 1011.7
20260509163050 25 44 1.6 11.3 0.00 0.00 0.00 65 1011.6
20260509161540 25 284 1.6 9.7 0.00 0.00 0.00 68 1011.5
20260509160039 25 0 1.6 8.0 0.00 0.00 0.00 67 1011.6
20260509154537 24 19 3.2 9.7 0.00 0.00 0.00 67 1011.6
20260509153036 23 59 3.2 11.3 0.00 0.00 0.00 72 1011.4
20260509151536 23 0 1.6 6.4 0.00 0.00 0.00 71 1011.4
20260509150039 22 292 0.0 8.0 0.00 0.00 0.00 74 1011.5
20260509144537 21 240 1.6 4.8 0.00 0.00 0.00 74 1011.6
20260509143037 20 267 0.0 6.4 0.00 0.00 0.00 77 1011.8
20260509141537 20 295 3.2 9.7 0.00 0.00 0.00 80 1011.8
20260509140039 19 265 0.0 6.4 0.00 0.00 0.00 82 1011.8
20260509134550 18 257 1.6 8.0 0.00 0.00 0.00 83 1011.7
20260509133042 18 263 3.2 6.4 0.00 0.00 0.00 84 1011.8
20260509131537 17 290 3.2 9.7 0.00 0.00 0.00 85 1011.8
20260509130037 17 264 0.0 3.2 0.00 0.00 0.00 86 1011.6
20260509124538 16 0 0.0 0.0 0.00 0.00 0.00 89 1011.4
20260509123037 15 0 0.0 0.0 0.00 0.00 0.00 91 1011.3
20260509121540 14 0 0.0 0.0 0.00 0.00 0.00 94 1011.0